Location: Quedlinburg
(51.7921°N, 11.1414°E)
Time: 08:19:54
(UTC+02:00)

SO-50 - Pass Details

Date: 13 March 2026
Orbit: 567 x 673 km, 64.6° (Epoch: 13 April)

Event Time Altitude Azimuth Distance (km) Brightness Sun altitude
Rises 20:22:30 0° 245° (WSW) 2,952 ? -19.9°
Reaches altitude 10° 20:24:52 10° 252° (WSW) 2,060 ? -20.2°
Maximum altitude 20:29:20 43° 324° (NW) 940 ? -20.9°
Drops below altitude 10° 20:33:55 10° 36° (NE) 2,109 ? -21.5°
Enters shadow 20:34:42 - 39° (NE) 2,394 ? -21.6°
